CAPE
1 1 0 0 0 0 0 0 0 0 0 1 1 2 1 3 0 0 0 0 0 0 0 0 0 0 1 453 141 98 220 328 240 162 139 32 54 65 45 624 720 685 416 123 61
1 1 0 0 0 0 0 0 1 0 0 0 1 1 1 1 0 0 0 0 0 0 0 0 0 0 0 66 125 76 193 437 411 1 33 26 67 33 16 90 540 703 570 256 243
0 0 0 0 0 0 0 0 0 0 0 0 0 1 1 0 0 0 0 0 0 0 0 0 0 0 0 1 27 147 196 133 181 1 52 18 20 16 23 43 866 768 580 305 363
0 0 0 0 0 0 0 0 0 0 0 1 0 2 1 0 0 0 0 0 0 0 0 0 0 0 0 0 5 130 22 0 42 36 53 20 3 27 13 66 565 670 546 439 323
0 0 1 0 0 0 0 1 1 0 0 2 2 3 0 0 0 0 0 0 0 0 0 0 0 0 0 0 5 56 98 255 209 258 41 10 33 26 30 39 376 673 539 539 505
2 3 3 3 2 1 0 0 0 0 0 2 2 2 0 0 0 0 0 0 0 0 0 0 0 0 0 0 11 62 79 190 192 220 329 274 109 14 5 0 264 605 575 614 508
4 3 2 1 1 1 0 0 0 0 0 1 5 0 0 0 0 0 0 0 0 0 0 0 0 0 0 0 3 30 39 58 183 196 222 144 147 182 13 24 56 442 560 635 792
4 3 3 2 1 0 0 0 0 0 1 0 2 0 0 0 0 0 0 0 0 0 0 0 0 0 0 0 14 10 26 49 41 298 323 186 182 0 134 271 169 250 425 563 716
3 3 2 1 0 0 0 0 0 0 0 0 0 0 0 0 0 0 0 0 0 0 0 0 0 0 0 0 5 30 28 60 117 105 160 91 136 117 56 253 471 278 292 424 691
3 2 1 0 0 0 0 0 0 0 0 0 0 0 0 0 0 0 0 0 0 0 0 0 0 0 0 0 0 19 3 49 71 95 184 93 188 51 140 48 82 368 324 466 472
2 2 0 0 0 0 0 0 0 0 0 0 0 0 0 0 0 0 0 0 0 0 0 0 0 0 0 0 0 5 0 0 17 7 109 76 244 82 58 0 34 498 380 234 342
0 0 0 0 0 0 0 0 0 0 0 0 0 0 0 0 0 0 0 0 0 0 0 0 0 0 0 0 0 0 0 0 0 52 45 71 364 80 0 92 289 383 456 465 335
0 0 0 0 0 0 0 0 0 0 0 0 0 0 0 0 0 0 0 0 0 0 0 0 0 0 0 0 0 0 0 0 1 78 20 87 90 202 304 806 794 571 737 702 640
1 0 0 0 0 0 0 0 0 0 0 0 0 0 0 0 0 0 0 0 0 0 0 0 0 0 0 0 0 0 0 0 11 99 73 76 107 385 166 224 363 573 703 715 840
0 0 0 0 0 0 0 0 0 0 0 0 0 0 0 0 0 0 0 0 0 0 0 0 0 0 0 0 0 0 0 0 2 0 7 76 84 33 82 113 63 242 645 556 933
0 0 0 0 0 0 0 0 0 0 0 0 0 0 0 0 0 0 0 0 0 0 0 0 0 0 0 0 0 0 0 0 0 0 1 0 9 88 47 147 128 79 328 753 605
0 0 0 0 0 0 0 0 0 0 0 0 0 0 0 0 0 0 0 0 0 0 0 0 0 0 0 0 0 0 0 0 0 0 0 0 0 1 60 104 79 124 282 500 952
0 0 0 0 0 0 0 0 0 0 0 0 0 0 0 0 0 0 0 0 0 0 0 0 0 0 0 0 0 0 0 0 0 0 0 0 0 0 0 28 116 226 219 275 562
0 0 0 0 0 0 0 0 0 0 0 0 0 0 0 0 0 0 2 0 0 0 0 0 0 0 0 0 0 0 0 0 0 0 0 0 0 0 0 0 3 0 236 359 411
0 0 0 0 0 0 0 0 3 0 0 0 0 0 0 0 0 0 0 0 2 0 0 0 0 0 0 0 0 0 0 0 0 0 0 0 0 0 0 2 0 0 0 185 424
0 0 0 0 0 0 5 1 0 0 0 0 0 0 0 0 6 1 0 0 0 1 1 0 0 0 0 0 0 0 0 0 0 0 0 0 4 18 45 0 2 0 0 1 358
0 6 0 0 0 9 14 1 0 0 2 9 24 41 35 7 27 25 4 28 0 0 0 0 0 0 0 0 0 0 0 0 0 0 0 0 1 0 10 5 0 0 10 0 47
1 0 8 12 19 13 7 17 6 22 1 65 60 50 66 42 22 41 28 4 0 0 0 0 0 0 0 0 1 0 0 0 0 0 0 0 0 0 0 0 3 0 0 105 225
7 14 16 5 4 18 23 18 24 28 8 74 111 103 89 43 18 2 6 4 0 0 27 0 0 0 0 0 0 0 0 0 0 0 0 0 0 0 0 0 0 0 0 8 463
7 16 25 27 1 0 38 27 31 76 56 27 88 86 101 52 52 15 16 0 3 10 0 0 0 0 0 0 2 0 0 0 0 0 0 0 4 3 3 0 0 74 74 175 405
23 44 12 8 8 20 32 3 81 107 66 53 53 78 114 48 35 15 2 3 3 0 0 0 0 0 0 0 0 0 0 0 0 0 0 0 16 20 1 0 0 12 0 25 1
34 11 18 20 19 26 15 33 67 114 160 143 113 149 163 43 60 27 1 0 0 1 0 0 0 0 0 0 0 2 0 0 0 0 0 0 54 207 14 5 4 36 0 0 0
CIN
0 0 0 0 0 0 0 0 0 0 0 0 0 0 0 0 0 0 0 0 0 0 0 0 0 0 -4 -13 -20 -7 -1 -6 -5 -1 -38 -92 -29 -19 -36 -1 -4 -9 -117 -126 -104
0 0 0 0 0 0 0 0 0 0 0 0 0 0 0 0 0 0 0 0 0 0 0 0 0 0 0 -63 -16 -19 -7 -102 -37 -25 -14 -80 -7 -16 -22 -7 0 -23 -45 -68 -47
0 0 0 0 0 0 0 0 0 0 0 0 0 0 0 0 0 0 0 0 0 0 0 0 0 0 0 -37 -48 -9 -87 -153 -61 -6 -63 -110 -6 -37 -22 -63 -4 -43 -61 -56 -48
0 0 0 0 0 0 0 0 0 0 0 0 0 0 0 0 0 0 0 0 0 0 0 0 0 0 0 0 0 -3 -256 -29 -123 -73 -50 -107 -214 -1 -8 -25 -2 -25 -53 -63 -53
0 0 0 0 0 0 0 0 0 0 0 0 0 0 0 0 0 0 0 0 0 0 0 0 0 0 0 0 -1 -13 -137 -74 -96 -27 -276 -84 -82 -15 -3 -2 -2 -7 -30 -42 -31
0 0 0 0 0 0 0 0 0 0 0 0 0 0 0 0 0 0 0 0 0 0 0 0 0 0 0 0 -1 -9 -2 -7 -2 -1 -43 -145 -13 -27 -1 0 -17 -11 -20 -23 -34
0 0 0 0 0 0 0 0 0 0 0 0 0 0 0 0 0 0 0 0 0 0 0 0 0 0 0 0 -2 0 -1 -20 -10 -4 -4 -4 -25 -40 -176 -7 -44 -27 -14 -3 -4
0 0 0 0 0 0 0 0 0 0 0 0 0 0 0 0 0 0 0 0 0 0 0 0 0 0 0 0 -1 -2 -3 -38 -14 -5 -1 -1 -112 0 -55 -10 -17 -31 -10 -1 0
0 0 0 0 0 0 0 0 0 0 0 0 0 0 0 0 0 0 0 0 0 0 0 0 0 0 0 0 0 0 0 -27 -3 -4 -3 -2 -165 -270 -185 -243 -8 -26 -25 -11 0
0 0 0 0 0 0 0 0 0 0 0 0 0 0 0 0 0 0 0 0 0 0 0 0 0 0 0 0 0 0 0 -10 -3 -2 -6 -1 -42 -169 -254 -114 -144 -11 -16 -26 -19
0 0 0 0 0 0 0 0 0 0 0 0 0 0 0 0 0 0 0 0 0 0 0 0 0 0 0 0 0 0 0 0 -1 -2 -17 -2 -115 -231 -396 -2 -312 -6 -21 -30 -29
0 0 0 0 0 0 0 0 0 0 0 0 0 0 0 0 0 0 0 0 0 0 0 0 0 0 0 0 0 0 0 0 0 -2 -42 -18 -63 -270 -29 -346 -276 -13 -67 -32 -19
0 0 0 0 0 0 0 0 0 0 0 0 0 0 0 0 0 0 0 0 0 0 0 0 0 0 0 0 0 0 0 0 0 -2 -14 -1 -10 -131 -269 -194 -45 -12 -48 -7 -32
0 0 0 0 0 0 0 0 0 0 0 0 0 0 0 0 0 0 0 0 0 0 0 0 0 0 0 0 0 0 0 0 -2 -20 -22 -8 -22 -6 0 -1 -2 -3 -19 -1 -12
0 0 0 0 0 0 0 0 0 0 0 0 0 0 0 0 0 0 0 0 0 0 0 0 0 0 0 0 0 0 0 0 -2 0 -6 -4 -1 -1 -9 -4 0 -1 -5 -5 -7
0 0 0 0 0 0 0 0 0 0 0 0 0 0 0 0 0 0 0 0 0 0 0 0 0 0 0 0 0 0 0 0 0 0 0 0 -1 -17 -1 -4 0 -3 -1 -5 -6
0 0 0 0 0 0 0 0 0 0 0 0 0 0 0 0 0 0 0 0 0 0 0 0 0 0 0 0 0 0 0 0 0 0 0 0 0 0 -1 -13 -22 -2 -2 -1 -4
0 0 0 0 0 0 0 0 0 0 0 0 0 0 0 0 0 0 0 0 0 0 0 0 0 0 0 0 0 0 0 0 0 0 0 0 0 0 -1 -5 -1 -1 -8 -5 0
0 0 0 0 0 0 0 0 0 0 0 0 0 0 0 0 0 0 -9 0 0 0 0 0 0 0 0 0 0 0 0 0 0 0 0 0 0 0 0 0 0 0 -1 -4 -2
0 0 0 0 0 0 0 0 -1 0 0 0 0 0 0 0 0 0 0 0 -1 0 0 0 0 0 0 0 0 0 0 0 0 0 0 0 0 0 0 0 0 0 0 -2 -5
0 0 0 0 0 0 0 0 0 0 0 0 0 0 0 0 -10 -1 0 0 0 -20 -7 0 0 0 0 0 0 0 0 0 0 0 0 0 -1 -3 -26 0 -6 0 0 -2 -1
0 0 0 0 0 -1 -1 0 0 0 0 0 -4 -1 0 -1 0 0 -1 0 0 0 0 0 0 0 0 0 0 0 0 0 0 0 0 0 -8 -1 -2 -11 0 0 -3 0 -19
0 0 -1 0 0 0 0 0 0 0 -5 -1 -7 -3 0 -1 0 0 0 -1 -2 0 0 0 0 0 0 0 0 0 0 0 0 0 0 0 0 0 0 0 -2 0 0 -34 -15
0 0 0 -1 0 -1 0 0 0 -1 -7 -38 -3 -1 -1 0 0 -2 -1 -4 0 0 -9 0 0 0 0 0 0 0 0 0 0 0 0 0 0 0 0 0 0 0 0 -128 -16
0 0 0 0 0 0 0 -2 0 -2 -28 -102 -9 -1 0 0 -1 -2 0 0 -6 -1 0 0 0 0 0 0 -6 0 0 0 0 0 0 0 -35 -13 -120 0 0 -90 -76 -24 -8
0 0 0 0 -3 0 0 0 0 -1 0 -5 0 -48 0 0 -2 -2 -3 0 0 0 0 0 0 0 0 0 0 0 0 0 0 0 0 0 -2 -6 -31 0 0 -146 0 -139 -18
-1 0 0 0 0 0 0 0 -9 -1 0 0 -3 0 0 -1 -1 -2 -1 0 0 0 0 0 0 0 0 0 0 -3 0 0 0 0 0 0 -33 -6 -18 -94 -188 -120 0 0 0
Wind_Speed
20 21 21 21 21 22 21 20 21 20 19 18 17 16 16 14 17 14 18 15 14 13 6 13 18 20 18 22 19 18 10 12 13 7 13 16 15 19 18 20 16 10 26 28 24
21 22 22 22 22 22 22 22 21 21 20 18 17 15 15 14 17 24 20 22 7 16 18 19 20 21 18 22 16 15 8 8 22 4 4 9 13 14 12 16 17 26 30 28 25
23 23 23 24 24 24 23 23 23 21 20 19 17 15 13 13 12 9 9 31 19 18 20 20 20 22 23 17 20 21 3 12 7 4 16 8 4 13 15 14 26 28 30 28 23
24 25 24 25 26 26 25 25 24 23 21 18 17 13 10 11 7 7 4 13 24 20 20 22 20 24 23 22 21 16 13 20 18 13 6 3 14 15 14 18 24 27 29 28 28
24 24 25 25 26 26 26 24 24 23 20 16 13 9 7 11 15 14 12 15 21 21 23 22 23 23 24 22 22 21 25 28 31 27 21 27 15 8 17 21 24 28 27 28 26
24 25 25 26 26 27 26 24 23 22 18 15 9 7 8 17 14 19 12 15 17 24 24 25 21 22 22 24 24 17 19 20 12 7 25 22 17 9 11 22 24 26 27 26 26
25 26 27 28 28 29 28 24 23 21 18 12 11 12 14 22 11 11 12 16 19 23 24 26 25 22 23 23 25 20 14 17 15 14 12 17 11 11 7 22 23 25 25 25 26
26 27 28 30 30 31 29 25 22 18 15 8 11 12 11 14 22 21 11 16 18 20 24 26 21 22 23 21 18 19 16 15 20 22 21 19 17 13 18 20 21 23 23 23 24
26 27 28 30 32 32 31 30 25 14 4 5 10 11 11 4 17 20 20 18 18 19 22 20 20 21 19 21 18 19 17 23 23 18 18 19 19 22 5 16 20 20 22 21 20
26 28 29 30 31 33 33 34 8 8 8 11 13 10 10 14 13 18 21 18 20 19 20 21 16 19 20 19 20 18 21 20 21 18 24 22 16 19 16 21 26 22 21 21 22
25 25 27 29 32 32 18 6 13 6 14 20 9 17 20 6 4 12 20 21 22 22 22 24 19 24 27 24 22 20 22 23 21 21 24 20 21 25 13 4 16 23 24 23 22
28 29 29 28 30 30 17 16 14 12 20 21 28 31 31 28 21 14 20 23 25 26 23 22 28 25 25 24 26 27 25 23 21 12 6 21 26 26 24 33 36 21 18 23 22
28 29 31 33 31 19 8 17 15 14 14 21 28 28 29 24 25 18 24 27 27 29 30 28 17 26 26 26 27 28 27 24 21 17 11 22 10 27 30 25 29 25 29 23 23
26 27 29 29 10 16 14 19 17 12 9 11 11 6 20 24 26 29 26 28 24 30 30 29 26 28 27 28 27 28 28 27 24 18 15 20 10 26 16 20 23 25 23 24 25
26 27 27 18 13 12 18 17 16 10 10 10 8 5 10 26 3 27 28 26 30 25 27 28 28 31 28 28 27 25 25 25 25 19 17 20 16 13 20 19 21 22 25 24 26
28 28 25 13 11 12 17 18 11 8 9 11 25 26 26 10 24 26 30 28 26 29 27 31 26 29 30 22 27 24 22 24 23 18 17 22 18 19 16 19 20 21 22 26 25
28 31 20 11 9 15 13 11 8 9 17 17 26 28 27 27 21 24 23 30 27 29 27 27 34 29 25 21 25 24 23 15 17 18 16 21 20 13 16 23 18 21 21 21 25
31 32 11 12 13 13 11 12 11 11 15 20 19 25 27 25 19 23 24 27 32 31 19 24 26 34 23 28 23 28 25 14 24 18 17 21 21 18 21 16 20 21 24 22 21
31 10 11 5 9 10 10 11 11 11 16 19 23 20 24 27 19 28 27 25 29 29 30 24 29 22 34 24 25 26 27 22 20 21 18 18 22 24 25 22 19 12 22 24 22
14 13 14 5 11 9 11 15 13 13 15 18 23 20 24 25 24 22 20 14 23 30 31 29 21 31 30 26 29 29 21 22 17 22 21 19 22 18 23 20 25 20 16 17 23
10 10 7 8 9 10 12 14 14 16 14 16 19 22 20 24 22 19 20 32 26 29 22 30 28 24 30 33 26 21 23 25 20 16 15 15 14 16 24 25 20 19 19 16 21
8 11 14 8 11 7 8 11 11 17 16 12 12 17 20 20 20 21 21 23 25 24 22 18 25 22 30 29 31 27 28 25 13 20 16 14 9 15 11 23 18 15 20 19 16
11 14 9 9 10 11 16 14 12 15 13 11 6 13 14 19 19 10 14 22 33 26 16 15 10 18 27 26 30 33 30 29 22 17 20 15 12 7 9 9 14 17 15 11 15
8 9 10 11 12 18 20 15 16 12 10 12 25 6 10 16 18 11 13 14 29 29 23 8 11 20 19 20 18 27 30 29 29 17 15 17 13 10 9 6 0 8 12 12 13
5 6 12 9 11 20 20 18 18 12 2 7 17 5 11 14 17 7 9 18 18 22 17 16 16 17 23 23 25 28 27 28 30 22 20 18 20 14 13 11 5 11 8 5 11
5 3 6 10 14 15 19 12 20 16 15 15 19 7 19 12 11 15 12 13 10 17 23 17 12 12 18 22 21 25 32 31 29 28 23 24 18 12 15 16 9 10 9 8 6
2 3 2 4 8 9 13 14 18 23 17 19 10 14 17 13 12 18 14 16 17 20 16 12 12 11 16 18 20 21 14 14 26 24 23 20 16 19 20 19 16 9 8 3 3
Wind_Direction
355 351 347 343 340 337 335 331 326 320 316 312 309 305 302 302 297 247 244 236 212 199 241 219 215 220 206 236 227 244 259 283 296 124 160 250 117 80 102 133 156 118 138 146 146
351 347 344 339 336 334 330 327 323 317 312 306 301 299 300 308 287 265 243 229 210 182 218 217 207 213 217 229 228 232 274 348 304 1 300 328 122 122 137 125 118 117 125 146 154
348 344 340 337 334 331 328 324 321 314 307 300 292 290 295 300 274 249 29 209 194 174 216 226 208 215 224 221 225 232 99 259 251 271 123 283 137 168 137 137 125 133 141 151 152
346 342 338 336 333 329 325 322 319 312 307 297 286 281 288 266 266 76 63 183 174 196 214 230 216 213 221 225 230 219 129 251 248 220 127 48 286 126 172 134 130 142 150 152 156
342 338 335 332 329 326 321 319 317 313 308 294 277 263 239 216 243 244 117 144 177 199 209 219 218 217 219 228 231 229 178 211 244 228 155 181 199 241 117 121 128 142 156 155 162
339 336 333 330 328 324 319 318 315 313 306 296 254 206 238 246 250 230 157 163 185 200 212 220 221 221 226 232 235 231 213 226 247 222 163 171 169 124 147 131 135 149 161 160 168
338 335 333 330 326 322 318 316 315 312 303 299 217 217 237 238 263 165 195 186 202 199 209 219 226 221 228 229 244 229 255 233 241 226 203 228 78 120 342 133 145 159 165 169 169
336 334 332 329 326 320 317 313 307 302 303 299 195 205 256 254 231 261 213 203 205 194 218 215 220 230 229 244 257 240 233 258 216 212 236 220 153 281 174 147 155 164 171 171 177
333 332 331 329 324 320 317 307 297 274 292 161 185 226 261 175 223 217 226 209 205 197 220 232 216 233 228 235 238 228 228 229 232 224 232 221 139 184 316 333 163 168 174 176 180
334 333 331 328 324 319 320 304 314 195 213 201 263 230 236 240 207 216 205 219 202 204 214 224 210 218 227 214 225 215 224 238 229 189 228 230 145 164 125 245 273 172 177 178 184
333 330 327 327 322 316 330 346 352 177 336 286 247 250 295 272 40 186 201 206 206 208 208 208 209 215 215 226 229 241 226 227 243 225 219 226 144 151 173 259 260 181 174 182 185
334 333 330 328 320 312 300 13 1 298 297 277 266 264 263 279 290 209 190 200 204 206 204 203 223 214 223 218 227 235 249 228 238 190 105 273 158 161 159 186 221 185 199 175 179
331 330 328 326 317 298 355 356 326 321 287 286 246 241 234 234 240 229 198 201 203 207 204 216 211 222 218 223 220 229 237 248 227 143 228 231 286 175 197 198 201 168 192 178 174
330 328 328 331 299 321 356 334 326 327 285 275 190 250 219 223 228 236 192 208 211 213 214 220 229 200 219 223 219 223 227 247 259 173 200 215 190 241 221 197 180 182 174 180 177
332 330 329 321 300 309 341 325 317 278 295 85 82 3 336 204 292 198 229 206 218 209 212 216 216 230 207 224 219 230 224 232 254 263 251 191 222 225 204 218 187 184 176 181 180
333 325 333 305 265 282 325 319 285 243 251 12 11 355 345 248 232 261 204 212 222 229 218 227 213 226 232 211 226 222 229 225 235 251 248 244 194 230 220 199 209 186 194 186 182
327 316 314 294 289 324 322 297 261 246 306 2 352 345 326 308 301 238 231 208 213 218 218 217 228 218 224 215 212 217 217 219 215 216 237 238 247 250 233 181 215 192 190 199 179
325 312 273 256 288 323 305 280 266 272 294 345 348 323 306 290 297 292 244 214 209 223 221 218 213 221 203 221 206 212 216 220 216 218 220 233 232 232 259 247 206 193 183 193 192
319 312 280 189 326 306 285 272 313 9 344 333 324 313 312 313 340 331 293 239 208 219 227 222 228 205 231 209 223 200 215 222 231 223 228 224 221 247 222 244 250 244 190 183 187
317 294 265 357 320 285 267 271 292 7 352 322 310 317 302 306 314 326 311 275 232 216 230 246 252 222 205 216 217 227 196 216 229 235 232 224 231 214 216 222 214 223 230 200 181
295 299 87 344 300 261 260 315 352 352 313 301 299 301 297 297 339 318 290 326 356 332 250 226 250 250 218 204 205 211 223 207 225 233 240 251 246 231 198 201 209 214 192 225 186
304 300 326 345 291 283 320 353 353 312 309 315 301 298 311 315 302 291 292 287 309 317 304 268 231 246 252 211 208 211 218 216 219 211 244 261 259 19 189 179 189 227 184 188 221
315 305 317 327 316 341 322 328 333 307 319 320 303 311 316 308 299 293 302 330 308 320 346 344 251 230 241 248 198 209 209 220 221 219 218 240 246 104 58 86 182 186 201 207 185
306 320 328 322 356 341 340 323 309 331 7 356 311 332 313 300 289 304 334 312 314 299 297 300 261 253 229 232 230 193 216 209 224 211 217 219 241 135 111 106 116 158 186 202 188
337 326 339 308 342 323 312 306 301 315 67 154 273 358 290 309 314 308 315 319 314 314 326 265 266 259 262 240 242 194 209 215 214 230 208 220 217 140 135 138 178 81 68 113 176
311 331 346 306 303 304 303 316 299 324 318 327 301 13 282 304 307 294 316 301 305 312 333 330 278 279 275 272 276 271 199 210 220 221 224 224 216 173 137 110 117 128 106 82 68
47 346 262 265 295 289 285 303 325 316 316 306 293 293 308 315 299 294 282 264 262 283 303 318 331 298 258 249 254 256 236 227 209 219 219 222 226 166 146 141 146 140 93 105 162